Weather in Samsat

Turkey     37°34′48″N   38°28′33″E
temp.,
°C
wind,
m/s
gust,
m/s
humid.,
%
clouds,
%
prec.,
mm/h
press.,
hPa
HPBL,
m
6 march, sat
sat600:00+7ne11440 0.0 102422
03:00+6ene12450 0.0 102422
06:00+4ene12470 0.0 102522
09:00+9ne22390 0.0 1025166
12:00+13ese11320 0.0 1024732
15:00+15wsw223033 0.0 10211058
18:00+12w234438 0.0 102027
21:00+10sse015152 0.0 102022
7 march, sun
sun700:00+10ese1253100 0.0 102022
03:00+8ne1164100 0.0 101922
06:00+7ne126725 0.0 101822
09:00+10ne225712 0.0 1018208
12:00+14ne22440 0.0 1016994
15:00+16nw11350 0.0 10131731
18:00+14w12490 0.0 101223
21:00+11s236110 0.1 101331
8 march, mon
mon800:00+10sw1178100 0.8 101324
03:00+8nne128264 1.0 101327
06:00+7nne238454 0.1 101339
09:00+9n337275 0.2 1013445
12:00+10nne326975 0.7 1012640
15:00+13n235045 0.8 10111184
18:00+12nne34490 0.0 101183
21:00+8ne34420 0.0 101452
9 march, tue
tue900:00+6ene12520 0.0 101522
03:00+5nne11560 0.0 101522
06:00+4nne116042 0.0 101622
09:00+8ene114429 0.0 1018188
12:00+12w12340 0.0 1017992
15:00+14w23280 0.0 10151628
18:00+12ene01460 0.0 101522
21:00+10ese234112 0.0 101723
10 march, wed
wed1000:00+10ene2344100 0.0 101742
03:00+9ene3547100 0.0 1017109
06:00+8ene4650100 0.0 1017140
09:00+10ene5659100 0.0 1018345
12:00+13ene335399 0.1 10161051
15:00+13ene555689 0.2 1013831
18:00+11ne7106818 0.0 1012298
21:00+9ene687649 0.0 1012207